Regional Weather Roundup
Issued by NWS

Home | Current Version | Previous Version | Graphics & Text | Print | Product List | Glossary On
Versions: 1 2 3 4 5 6 7 8 9 10 11 12 13 14 15 16 17 18 19 20 21 22 23 24 25 26 27 28 29 30 31 32 33 34 35 36 37 38 39 40 41 42 43 44 45 46 47 48 49 50
000
ASUS43 KBIS 281502
RWRND

NORTH DAKOTA REGIONAL WEATHER ROUNDUP
NATIONAL WEATHER SERVICE BISMARCK ND
1000 AM CDT FRI APR 28 2017

NOTE: "FAIR" INDICATES FEW OR NO CLOUDS BELOW 12,000 FEET WITH NO
SIGNIFICANT WEATHER AND/OR OBSTRUCTIONS TO VISIBILITY.


NDZ001>003-009>011-017-281600-
NORTHWEST NORTH DAKOTA

CITY           SKY/WX    TMP DP  RH WIND       PRES   REMARKS
WILLISTON      FAIR      44  28  53 SE5       30.03R
MINOT          FAIR      44  16  32 VRB3      30.02R
MINOT AFB      SUNNY     42  20  42 N5        30.02R
$$

NDZ018>021-031>035-040>046-281600-
SOUTHWEST NORTH DAKOTA

CITY           SKY/WX    TMP DP  RH WIND       PRES   REMARKS
BISMARCK       FAIR      43  25  49 N6        30.02R
DICKINSON      FAIR      40  25  55 SE7       29.97R
GARRISON         N/A     42  25  50 CALM      30.02R
HETTINGER ARPT SUNNY     39  28  64 E8        29.98R
$$

NDZ004>008-012>016-024-026-027-054-281600-
NORTHEAST NORTH DAKOTA

CITY           SKY/WX    TMP DP  RH WIND       PRES   REMARKS
GRAND FORKS    SUNNY     42  27  55 N14       29.96R
GRND FRKS AFB  SUNNY     40  24  54 N13       29.96R
DEVILS LAKE    FAIR      41  18  39 N15       29.99R
$$

NDZ022-023-025-028>030-036>039-047>053-281600-
SOUTHEAST NORTH DAKOTA

CITY           SKY/WX    TMP DP  RH WIND       PRES   REMARKS
FARGO          SUNNY     39  29  67 N10       29.96R
JAMESTOWN      FAIR      40  24  53 N8        29.98R
$$





USA.gov is the U.S. government's official web portal to all federal, state and local government web resources and services.